[[{"header":{"parameterUnit":"m.s-1","parameterCategory":2,"la1":30.2991,"la2":30.254,"lo1":-89.0895,"lo2":-89.0444,"dy":0.0017,"dx":0.0017,"nx":28,"ny":28,"refTime":"2025-07-21T21:00:00:Z","depth":"0","parameterNumber":2,"parameterNumberName":"U-component_of_CURRENTS"},"data":[0,0,0,0,0,0,0,0,0,0,0,0,0,0,0,0,0,0,0,0,0,0,0,0,0,0,0,0,0,0,0,0,0,0,0,0,0,0,0,0,0,0,0,0,0,0,0,0,0,0,0,0,0,0,0,0,0,0,-0.1935,-0.1935,0,-0.1924,-0.1924,-0.1924,-0.1857,-0.1855,-0.1854,-0.1852,-0.1786,-0.1785,-0.1785,0,0,0,0,0,0,0,0,0,0,0,0,0,-0.1874,-0.1876,-0.1935,-0.1935,-0.1935,-0.1924,-0.1924,-0.1924,-0.1857,-0.1855,-0.1853,-0.1852,-0.1786,-0.1785,-0.1785,0,0,0,0,0,0,0,0,0,0,0,0,0,-0.1884,-0.1876,-0.1935,-0.1902,-0.1899,-0.1924,-0.1924,-0.1924,-0.1857,-0.1855,-0.1853,-0.1851,-0.1786,-0.1785,-0.1785,-0.1824,0,0,-0.1783,-0.1783,0,0,0,0,0,0,0,0,-0.1884,-0.1886,-0.1907,-0.1904,-0.1901,-0.1891,-0.1878,-0.1888,-0.1858,-0.1871,-0.1852,-0.185,-0.1819,-0.1815,-0.1816,-0.1821,-0.1818,-0.1783,-0.1782,-0.1782,-0.1782,0,0,0,0,0,0,0,-0.1883,-0.1886,-0.1929,-0.1907,-0.1904,-0.188,-0.1879,-0.188,-0.1855,-0.187,-0.1865,-0.1868,-0.1816,-0.1817,-0.1814,-0.1817,-0.1783,-0.1782,-0.1782,-0.1782,-0.1818,-0.182,0,0,0,0,0,0,-0.1893,-0.1886,-0.1929,-0.1929,-0.1889,-0.1883,-0.1882,-0.1895,-0.1856,-0.1849,-0.187,-0.1865,-0.1819,-0.1815,-0.1811,-0.1829,-0.1782,-0.1782,-0.1781,-0.1817,-0.1819,-0.182,0,0,0,0,0,0,-0.1892,-0.1897,-0.193,-0.1908,-0.191,-0.1887,-0.1902,-0.1896,-0.1885,-0.1857,-0.1848,-0.1864,-0.1817,-0.1812,-0.1814,-0.1826,-0.1781,-0.1781,-0.1815,-0.1818,-0.1819,-0.188,0,0,0,0,0,0,-0.189,-0.1897,-0.1905,-0.1909,-0.1912,-0.1942,-0.1904,-0.1897,-0.1892,-0.1885,-0.1849,-0.1841,-0.1815,-0.1815,-0.1813,-0.1824,-0.178,-0.1814,-0.1816,-0.1819,-0.1877,-0.1884,-0.1891,0,0,0,0,0,-0.1888,-0.1904,-0.1906,-0.1911,-0.1926,-0.1943,-0.1942,-0.1916,-0.1894,-0.1896,-0.1877,-0.1842,-0.1829,-0.1816,-0.1814,-0.1825,-0.1812,-0.1816,-0.1819,-0.1873,-0.1883,-0.1891,0,0,0,0,0,0,-0.1875,-0.19,-0.1901,-0.1922,-0.1933,-0.1932,-0.1929,-0.1922,-0.191,-0.1895,-0.1865,-0.1858,-0.1865,-0.1844,-0.183,-0.1844,-0.1813,-0.1816,-0.1856,-0.1864,-0.1871,-0.1847,-0.178,0,0,0,0,0,-0.1883,-0.19,-0.1922,-0.1936,-0.1944,-0.1941,-0.1942,-0.193,-0.1925,-0.1916,-0.1899,-0.1882,-0.1882,-0.187,-0.1867,-0.1878,-0.185,-0.1882,-0.1889,-0.1895,-0.1875,-0.1871,-0.1876,-0.183,-0.183,-0.183,0,0,-0.1876,-0.1896,-0.1901,-0.1934,-0.1936,-0.1945,-0.1934,-0.1939,-0.1941,-0.1913,-0.1909,-0.1911,-0.1894,-0.1905,-0.1904,-0.1882,-0.1897,-0.1899,-0.1904,-0.188,-0.1875,-0.1879,-0.1883,-0.1832,-0.1832,-0.1832,0,0,-0.1871,-0.1897,-0.1906,-0.1922,-0.1938,-0.1945,-0.195,-0.1959,-0.1956,-0.197,-0.1952,-0.196,-0.1956,-0.1947,-0.1941,-0.1987,-0.1943,-0.199,-0.1994,-0.1992,-0.1995,-0.1998,-0.1977,-0.1977,-0.1983,-0.1984,-0.1984,0,-0.1863,-0.1878,-0.191,-0.1923,-0.1926,-0.1946,-0.1947,-0.1963,-0.197,-0.1973,-0.1969,-0.1977,-0.1971,-0.1976,-0.1993,-0.1999,-0.1985,-0.1963,-0.2,-0.2002,-0.2003,-0.1981,-0.198,-0.1987,-0.1986,-0.1986,-0.1986,0,-0.1859,-0.1872,-0.1879,-0.1903,-0.1919,-0.1924,-0.1954,-0.1969,-0.1976,-0.1988,-0.2007,-0.2014,-0.2008,-0.2025,-0.2021,-0.2034,-0.2017,-0.2018,-0.1975,-0.2011,-0.1986,-0.1984,-0.1992,-0.199,-0.1989,-0.1989,0,0,-0.1839,-0.1869,-0.1869,-0.1861,-0.1904,-0.1906,-0.1937,-0.196,-0.1963,-0.1995,-0.2001,-0.2027,-0.2035,-0.2029,-0.2038,-0.2039,-0.2054,-0.2033,-0.2031,-0.2004,-0.2036,-0.1751,-0.1721,-0.2066,-0.2065,-0.2065,-0.2018,0,-0.1819,-0.1821,-0.1853,-0.1842,-0.1838,-0.1876,-0.1897,-0.1925,-0.1958,-0.1981,-0.201,-0.2022,-0.2037,-0.2039,-0.2051,-0.2072,-0.205,-0.2065,-0.201,-0.2008,-0.1743,-0.1708,-0.1561,-0.148,-0.2015,-0.2015,-0.2015,0,-0.1802,-0.1801,-0.1789,-0.179,-0.1793,-0.1797,-0.182,-0.1845,-0.1905,-0.1931,-0.1966,-0.1998,-0.2033,-0.203,-0.205,-0.2064,-0.2038,-0.2038,-0.2036,-0.1735,-0.1715,-0.153,-0.1456,-0.1484,-0.2011,-0.2011,-0.2011,0,-0.1748,-0.1752,-0.1731,-0.1734,-0.1754,-0.1751,-0.1764,-0.1819,-0.184,-0.1901,-0.1923,-0.1975,-0.1994,-0.2004,-0.1989,-0.2039,-0.1971,-0.2045,-0.175,-0.1731,-0.1568,-0.1531,-0.1496,-0.2001,-0.2001,-0.2002,-0.2002,0,-0.1715,-0.1692,-0.1694,-0.1682,-0.165,-0.1687,-0.1679,-0.1715,-0.1771,-0.1792,-0.1883,-0.189,-0.1987,-0.1967,-0.1969,-0.1807,-0.1945,-0.171,-0.1679,-0.1582,-0.1549,-0.1532,-0.1641,-0.2,-0.2,-0.2,-0.2001,0,-0.1664,-0.167,-0.1636,-0.1632,-0.1626,-0.1601,-0.1619,-0.1627,-0.1687,-0.1723,-0.1742,-0.1835,-0.179,-0.1797,-0.1793,-0.1727,-0.1588,-0.1525,-0.1373,-0.1319,-0.1058,-0.1175,-0.1094,-0.1062,-0.1238,-0.1231,-0.1224,0,-0.1637,-0.1617,-0.159,-0.1568,-0.1562,-0.1536,-0.1534,-0.1579,-0.1602,-0.1666,-0.1681,-0.1652,-0.1596,-0.1438,-0.1294,-0.1151,-0.1275,-0.0924,-0.0963,-0.0959,-0.1076,-0.1198,-0.1192,-0.0821,-0.0811,-0.0804,-0.0798,0,-0.1578,-0.1572,-0.1548,-0.1516,-0.149,-0.1462,-0.1463,-0.1463,-0.1527,-0.1535,-0.1524,-0.1472,-0.1264,-0.1006,-0.0744,-0.0685,-0.0906,-0.0753,-0.0831,-0.0763,-0.0822,-0.0802,-0.0951,-0.073,-0.0737,-0.0742,-0.0745,-0.0748,-0.1527,-0.1502,-0.1487,-0.1444,-0.1424,-0.1396,-0.1336,-0.1348,-0.1329,-0.1284,-0.1311,-0.1114,-0.0811,-0.0403,-0.0352,-0.0135,-0.0349,-0.0145,-0.0302,-0.0433,-0.0339,-0.0265,0.0063,0.0061,0.0059,0.0058,0.0056,0,-0.1453,-0.1444,-0.1418,-0.1366,-0.1319,-0.1331,-0.1293,-0.1207,-0.1125,-0.1025,-0.0922,-0.0511,-0.0171,0.0017,0.0327,0.0302,0.014,0.0204,-0.0047,-0.0072,-0.0059,0.0031,0.0471,0.0471,0.0471,0.0471,0.0471,0.0471,-0.1414,-0.1371,-0.1363,-0.1267,-0.1232,-0.1113,-0.1055,-0.0946,-0.0816,-0.0531,-0.0262,-0.0069,0.016,0.0324,0.0415,0.0382,0.0156,0.0184,0.0034,-0.0079,-0.0129,-0.0177,-0.0114,0.0288,0.0287,0.0091,0.0088,0.0086]},{"header":{"parameterUnit":"m.s-1","parameterCategory":2,"la1":30.2991,"la2":30.254,"lo1":-89.0895,"lo2":-89.0444,"dy":0.0017,"dx":0.0017,"nx":28,"ny":28,"refTime":"2025-07-21T21:00:00:Z","depth":"0","parameterNumber":3,"parameterNumberName":"V-component_of_CURRENTS"},"data":[0,0,0,0,0,0,0,0,0,0,0,0,0,0,0,0,0,0,0,0,0,0,0,0,0,0,0,0,0,0,0,0,0,0,0,0,0,0,0,0,0,0,0,0,0,0,0,0,0,0,0,0,0,0,0,0,0,0,-0.0702,-0.0702,0,-0.0694,-0.0693,-0.0693,-0.0636,-0.0635,-0.0634,-0.0633,-0.0535,-0.0533,-0.0532,0,0,0,0,0,0,0,0,0,0,0,0,0,-0.0519,-0.0523,-0.0702,-0.0702,-0.0702,-0.0694,-0.0693,-0.0693,-0.0636,-0.0635,-0.0634,-0.0633,-0.0536,-0.0534,-0.0532,0,0,0,0,0,0,0,0,0,0,0,0,0,-0.056,-0.0525,-0.0702,-0.0676,-0.0674,-0.0694,-0.0693,-0.0693,-0.0637,-0.0635,-0.0634,-0.0632,-0.0536,-0.0534,-0.0531,-0.0546,0,0,-0.0524,-0.0523,0,0,0,0,0,0,0,0,-0.0558,-0.0566,-0.068,-0.0678,-0.0676,-0.0668,-0.0593,-0.0641,-0.0637,-0.0647,-0.0633,-0.0631,-0.0575,-0.0569,-0.0567,-0.0542,-0.0537,-0.0524,-0.0522,-0.0521,-0.052,0,0,0,0,0,0,0,-0.0555,-0.0565,-0.0694,-0.068,-0.0678,-0.0614,-0.0619,-0.0601,-0.0614,-0.0646,-0.0642,-0.0649,-0.0572,-0.0569,-0.0564,-0.0536,-0.0524,-0.0521,-0.052,-0.0519,-0.0483,-0.0483,0,0,0,0,0,0,-0.0575,-0.0565,-0.0695,-0.0694,-0.0616,-0.062,-0.0625,-0.0669,-0.0617,-0.0609,-0.065,-0.0646,-0.0574,-0.0567,-0.056,-0.0573,-0.0521,-0.0519,-0.0517,-0.0482,-0.0483,-0.0484,0,0,0,0,0,0,-0.0572,-0.0589,-0.0695,-0.0629,-0.0639,-0.0626,-0.0674,-0.0669,-0.0662,-0.0622,-0.0611,-0.0648,-0.0573,-0.0563,-0.0546,-0.0568,-0.0517,-0.0515,-0.0482,-0.0483,-0.0483,-0.0599,0,0,0,0,0,0,-0.0567,-0.0588,-0.0609,-0.0633,-0.0644,-0.0717,-0.0676,-0.067,-0.0671,-0.0665,-0.0617,-0.0606,-0.0571,-0.055,-0.0544,-0.0564,-0.0513,-0.0481,-0.0482,-0.0483,-0.0595,-0.0604,-0.0612,0,0,0,0,0,-0.0561,-0.0605,-0.0611,-0.0626,-0.0681,-0.0718,-0.0718,-0.0698,-0.0672,-0.0682,-0.0644,-0.0607,-0.0551,-0.055,-0.0541,-0.0561,-0.0481,-0.0482,-0.0483,-0.0591,-0.0602,-0.0612,0,0,0,0,0,0,-0.0528,-0.0605,-0.0611,-0.0674,-0.0698,-0.071,-0.0721,-0.0705,-0.0685,-0.0675,-0.0622,-0.061,-0.0599,-0.0564,-0.0563,-0.0551,-0.0507,-0.0507,-0.0592,-0.0602,-0.061,-0.0673,-0.0511,0,0,0,0,0,-0.0538,-0.0585,-0.0644,-0.068,-0.0715,-0.0718,-0.0724,-0.0718,-0.0711,-0.0701,-0.0666,-0.0626,-0.0601,-0.0589,-0.0558,-0.0562,-0.051,-0.0564,-0.0573,-0.0581,-0.0624,-0.0596,-0.0607,-0.0488,-0.0488,-0.0488,0,0,-0.0523,-0.0574,-0.0593,-0.0673,-0.0697,-0.0765,-0.0718,-0.0748,-0.0779,-0.0694,-0.071,-0.0655,-0.0606,-0.0606,-0.0598,-0.0579,-0.0567,-0.0582,-0.059,-0.063,-0.0599,-0.0611,-0.0622,-0.0489,-0.0488,-0.0488,0,0,-0.0534,-0.0588,-0.0642,-0.0699,-0.0758,-0.0776,-0.0792,-0.082,-0.0814,-0.0825,-0.0766,-0.0738,-0.0696,-0.0676,-0.0658,-0.0699,-0.0611,-0.0668,-0.077,-0.0742,-0.0753,-0.0762,-0.0629,-0.0625,-0.0677,-0.0677,-0.0677,0,-0.0516,-0.0622,-0.0652,-0.0744,-0.0805,-0.0796,-0.0884,-0.0886,-0.0885,-0.0896,-0.0843,-0.0796,-0.0743,-0.076,-0.0768,-0.0724,-0.0656,-0.0737,-0.0757,-0.0765,-0.0772,-0.0635,-0.0629,-0.0683,-0.0682,-0.0681,-0.0681,0,-0.0586,-0.0687,-0.0735,-0.086,-0.091,-0.0988,-0.1032,-0.105,-0.1031,-0.1026,-0.1023,-0.0946,-0.0927,-0.0887,-0.0843,-0.0868,-0.0779,-0.0768,-0.074,-0.0792,-0.0641,-0.0634,-0.0691,-0.0689,-0.0687,-0.0686,0,0,-0.0553,-0.0748,-0.0774,-0.0875,-0.1,-0.1055,-0.1127,-0.12,-0.1241,-0.1202,-0.1236,-0.1184,-0.1131,-0.1108,-0.103,-0.1002,-0.095,-0.0919,-0.0914,-0.0801,-0.0808,-0.0673,-0.0649,-0.0946,-0.0948,-0.0949,-0.0652,0,-0.062,-0.0807,-0.0883,-0.1061,-0.1187,-0.1241,-0.1306,-0.1351,-0.1354,-0.1371,-0.1304,-0.129,-0.1218,-0.1186,-0.1161,-0.1007,-0.095,-0.1027,-0.0764,-0.0755,-0.0643,-0.0646,-0.0595,-0.0324,-0.0644,-0.0643,-0.0642,0,-0.0695,-0.0828,-0.1008,-0.1217,-0.1273,-0.1353,-0.1481,-0.1535,-0.1561,-0.1551,-0.1546,-0.1475,-0.1424,-0.1345,-0.1158,-0.1207,-0.1039,-0.0907,-0.0893,-0.0742,-0.0611,-0.0338,-0.0298,-0.0205,-0.0629,-0.063,-0.0631,0,-0.0675,-0.0929,-0.107,-0.1153,-0.1357,-0.1433,-0.1517,-0.1586,-0.1618,-0.1658,-0.1641,-0.1607,-0.1511,-0.1388,-0.1108,-0.1143,-0.0847,-0.0855,-0.0565,-0.0546,-0.0444,-0.0417,-0.0312,-0.0743,-0.0743,-0.0744,-0.0745,0,-0.0744,-0.0877,-0.1083,-0.117,-0.1343,-0.1466,-0.1584,-0.1659,-0.1706,-0.1713,-0.1721,-0.1652,-0.1522,-0.1324,-0.1131,-0.0787,-0.0857,-0.0584,-0.049,-0.0468,-0.0449,-0.0316,-0.0318,-0.0733,-0.0735,-0.0738,-0.074,0,-0.0709,-0.0843,-0.1036,-0.1264,-0.1337,-0.1454,-0.1616,-0.1672,-0.1728,-0.1725,-0.1726,-0.1647,-0.1401,-0.1194,-0.0905,-0.0748,-0.0384,-0.0333,-0.0258,-0.0165,0.0114,0.0104,0.0299,0.0395,-0.0018,-0.0013,-0.0009,0,-0.0717,-0.0802,-0.1054,-0.1158,-0.1273,-0.1446,-0.1528,-0.1659,-0.169,-0.1672,-0.1632,-0.1443,-0.1255,-0.0783,-0.0509,-0.0151,-0.0106,0.0115,0.0005,0.0135,0.0192,0.0165,0.0227,0.0156,0.0161,0.0165,0.0169,0,-0.073,-0.0789,-0.0923,-0.112,-0.126,-0.1403,-0.1529,-0.1546,-0.1626,-0.1594,-0.1453,-0.1311,-0.0902,-0.0528,-0.0108,0.0109,0.0156,0.0211,0.0287,0.0276,0.0306,0.0444,0.0032,0.0205,0.0201,0.0199,0.0197,0.0195,-0.0705,-0.0778,-0.0913,-0.1095,-0.1233,-0.132,-0.1358,-0.141,-0.1402,-0.1292,-0.1234,-0.0964,-0.0592,-0.0021,0.0214,0.0605,0.0506,0.0681,0.0659,0.0624,0.0673,0.0388,0.0679,0.0678,0.0677,0.0676,0.0676,0,-0.07,-0.0752,-0.0888,-0.1069,-0.1148,-0.1252,-0.1313,-0.1274,-0.1173,-0.1052,-0.0888,-0.0478,-0.0037,0.032,0.0807,0.1001,0.1005,0.1083,0.1006,0.1049,0.077,0.0729,0.111,0.111,0.111,0.111,0.111,0.111,-0.0697,-0.0776,-0.0828,-0.0941,-0.1032,-0.107,-0.1063,-0.0981,-0.0874,-0.058,-0.0336,-0.0144,0.0233,0.075,0.1202,0.1282,0.136,0.1366,0.142,0.1156,0.1113,0.1073,0.1035,0.1473,0.1474,0.1703,0.1704,0.1706]}],[{"header":{"parameterUnit":"m.s-1","parameterCategory":2,"la1":30.2991,"la2":30.254,"lo1":-89.0895,"lo2":-89.0444,"dy":0.0017,"dx":0.0017,"nx":28,"ny":28,"refTime":"2025-07-21T21:00:00:Z","depth":"2","parameterNumber":2,"parameterNumberName":"U-component_of_CURRENTS"},"data":[0,0,0,0,0,0,0,0,0,0,0,0,0,0,0,0,0,0,0,0,0,0,0,0,0,0,0,0,0,0,0,0,0,0,0,0,0,0,0,0,0,0,0,0,0,0,0,0,0,0,0,0,0,0,0,0,0,0,-0.1903,-0.1904,0,-0.2058,-0.2061,-0.2063,-0.2142,-0.2141,-0.214,-0.2139,-0.2346,-0.2352,-0.2358,0,0,0,0,0,0,0,0,0,0,0,0,0,-0.1844,-0.1845,-0.1903,-0.1904,-0.1905,-0.2058,-0.2061,-0.2064,-0.2142,-0.2141,-0.214,-0.2139,-0.2344,-0.2351,-0.2359,0,0,0,0,0,0,0,0,0,0,0,0,0,-0.1932,-0.1845,-0.1903,-0.1954,-0.196,-0.2057,-0.2061,-0.2065,-0.2143,-0.2141,-0.214,-0.2138,-0.2341,-0.235,-0.236,-0.2448,0,0,-0.2389,-0.2393,0,0,0,0,0,0,0,0,-0.1927,-0.1935,-0.1946,-0.1951,-0.1957,-0.207,-0.2115,-0.2192,-0.2143,-0.2085,-0.2139,-0.2138,-0.2252,-0.2269,-0.2316,-0.2458,-0.2466,-0.239,-0.2396,-0.24,-0.2403,0,0,0,0,0,0,0,-0.192,-0.193,-0.1976,-0.1947,-0.1954,-0.2027,-0.2037,-0.2132,-0.2184,-0.209,-0.2093,-0.2093,-0.2257,-0.2307,-0.2322,-0.2469,-0.239,-0.2398,-0.2404,-0.2408,-0.2685,-0.2687,0,0,0,0,0,0,-0.1871,-0.1923,-0.1971,-0.198,-0.1925,-0.2027,-0.204,-0.2044,-0.2182,-0.2198,-0.2094,-0.2096,-0.2291,-0.231,-0.2329,-0.2367,-0.24,-0.2409,-0.2414,-0.2684,-0.2686,-0.2687,0,0,0,0,0,0,-0.187,-0.1875,-0.1965,-0.1946,-0.1961,-0.2027,-0.2033,-0.2048,-0.2103,-0.2183,-0.2202,-0.2132,-0.2291,-0.2316,-0.242,-0.2378,-0.2413,-0.2422,-0.2682,-0.2684,-0.2687,-0.2491,0,0,0,0,0,0,-0.1868,-0.1873,-0.1873,-0.1942,-0.196,-0.2,-0.2034,-0.2051,-0.2099,-0.2103,-0.2222,-0.224,-0.2292,-0.2405,-0.2429,-0.2392,-0.2429,-0.268,-0.2683,-0.2686,-0.2495,-0.2486,-0.2479,0,0,0,0,0,-0.1865,-0.1876,-0.1873,-0.1878,-0.1953,-0.1999,-0.2016,-0.2067,-0.2101,-0.2117,-0.2212,-0.2236,-0.244,-0.2415,-0.2443,-0.2407,-0.2678,-0.2682,-0.2686,-0.2499,-0.2488,-0.2479,0,0,0,0,0,0,-0.1862,-0.1885,-0.1884,-0.1902,-0.1928,-0.2007,-0.2033,-0.2075,-0.2169,-0.2187,-0.2273,-0.2298,-0.2355,-0.2446,-0.2415,-0.2505,-0.2559,-0.2568,-0.2407,-0.2398,-0.239,-0.239,-0.2437,0,0,0,0,0,-0.1851,-0.1859,-0.1887,-0.1899,-0.1909,-0.1976,-0.2008,-0.2042,-0.2121,-0.2162,-0.2257,-0.2353,-0.2398,-0.2448,-0.2521,-0.2599,-0.2644,-0.2598,-0.2589,-0.2581,-0.2607,-0.2643,-0.2637,-0.2699,-0.2699,-0.2699,0,0,-0.1851,-0.1865,-0.1869,-0.1897,-0.1932,-0.196,-0.1995,-0.204,-0.207,-0.2172,-0.2278,-0.2328,-0.2413,-0.2464,-0.25,-0.2532,-0.2578,-0.2586,-0.2576,-0.2609,-0.2645,-0.2639,-0.2632,-0.2702,-0.2702,-0.2701,0,0,-0.186,-0.1865,-0.1874,-0.1892,-0.1923,-0.196,-0.1968,-0.2056,-0.2092,-0.2175,-0.2234,-0.2273,-0.2409,-0.2434,-0.246,-0.2474,-0.252,-0.2502,-0.2469,-0.2499,-0.2492,-0.2488,-0.2472,-0.2468,-0.251,-0.251,-0.2509,0,-0.1857,-0.1868,-0.1885,-0.19,-0.1916,-0.1956,-0.1978,-0.2021,-0.214,-0.2177,-0.2184,-0.2341,-0.2376,-0.2416,-0.2392,-0.2442,-0.2476,-0.2472,-0.2479,-0.2476,-0.2474,-0.2461,-0.2458,-0.2501,-0.2502,-0.2503,-0.2503,0,-0.1869,-0.1879,-0.1889,-0.191,-0.1935,-0.1958,-0.1994,-0.2048,-0.209,-0.2136,-0.2195,-0.2251,-0.2347,-0.2326,-0.2349,-0.2362,-0.2389,-0.2436,-0.2477,-0.2454,-0.2443,-0.2444,-0.2488,-0.2491,-0.2494,-0.2496,0,0,-0.1852,-0.1888,-0.1889,-0.1901,-0.194,-0.1966,-0.2002,-0.2047,-0.2107,-0.2148,-0.2237,-0.2209,-0.2256,-0.2295,-0.2326,-0.2331,-0.227,-0.2375,-0.2381,-0.2313,-0.2318,-0.204,-0.2015,-0.2321,-0.2322,-0.2323,-0.2288,0,-0.185,-0.1874,-0.1898,-0.1928,-0.1943,-0.1983,-0.2025,-0.2072,-0.2128,-0.2239,-0.2231,-0.232,-0.2239,-0.2293,-0.2266,-0.231,-0.2279,-0.2275,-0.2398,-0.2401,-0.2117,-0.2008,-0.1965,-0.1906,-0.229,-0.229,-0.229,0,-0.1842,-0.1862,-0.1884,-0.1941,-0.1954,-0.1981,-0.2065,-0.2111,-0.2223,-0.228,-0.2332,-0.2397,-0.2396,-0.2367,-0.2326,-0.2337,-0.2307,-0.2305,-0.2305,-0.2128,-0.2124,-0.2014,-0.1894,-0.2292,-0.2292,-0.2292,-0.2292,0,-0.1806,-0.1852,-0.1868,-0.1881,-0.1953,-0.1976,-0.2019,-0.2116,-0.2186,-0.2338,-0.2406,-0.2453,-0.2463,-0.246,-0.2335,-0.2385,-0.229,-0.2378,-0.2088,-0.2069,-0.2098,-0.2076,-0.2353,-0.2353,-0.2353,-0.2353,-0.2354,0,-0.1784,-0.1797,-0.1851,-0.1857,-0.1902,-0.1958,-0.2052,-0.2106,-0.2255,-0.2311,-0.2418,-0.2441,-0.2484,-0.2422,-0.2378,-0.2143,-0.2293,-0.2046,-0.2029,-0.2018,-0.1991,-0.2416,-0.2424,-0.2352,-0.2352,-0.2353,-0.2353,0,-0.1732,-0.1766,-0.179,-0.1856,-0.1879,-0.1908,-0.2046,-0.2125,-0.2234,-0.2324,-0.2372,-0.2431,-0.2294,-0.2254,-0.2218,-0.2107,-0.201,-0.1894,-0.1821,-0.1789,-0.179,-0.1789,-0.166,-0.165,-0.1641,-0.1634,-0.1627,0,-0.1705,-0.1708,-0.1767,-0.1789,-0.1811,-0.1891,-0.1953,-0.2097,-0.2167,-0.2244,-0.2255,-0.2196,-0.2062,-0.1851,-0.1702,-0.1545,-0.1692,-0.1431,-0.1491,-0.1715,-0.1714,-0.1728,-0.1739,-0.1473,-0.1466,-0.1461,-0.1456,0,-0.1648,-0.1666,-0.1682,-0.1717,-0.1764,-0.1853,-0.1924,-0.1979,-0.2094,-0.2105,-0.2017,-0.1931,-0.168,-0.1459,-0.122,-0.1151,-0.1464,-0.1298,-0.1602,-0.1589,-0.1517,-0.1522,-0.1545,-0.1406,-0.1411,-0.1414,-0.1417,-0.1419,-0.1596,-0.1592,-0.1606,-0.1632,-0.1694,-0.1739,-0.1738,-0.1794,-0.1804,-0.1713,-0.1714,-0.1488,-0.1451,-0.0988,-0.0859,-0.0791,-0.0921,-0.1016,-0.1046,-0.1079,-0.0996,-0.0905,-0.0664,-0.0665,-0.0666,-0.0666,-0.0667,0,-0.1523,-0.1516,-0.1528,-0.1541,-0.1545,-0.162,-0.166,-0.1603,-0.1478,-0.1384,-0.1229,-0.1011,-0.0814,-0.0764,-0.0563,-0.0484,-0.0603,-0.0504,-0.0764,-0.0812,-0.0856,-0.0774,-0.0378,-0.0376,-0.0374,-0.0373,0,0,-0.1484,-0.1448,-0.144,-0.1377,-0.1381,-0.1319,-0.1291,-0.1186,-0.1085,-0.0874,-0.0741,-0.0682,-0.0709,-0.0525,-0.0494,-0.0409,-0.0595,-0.0364,-0.061,-0.0963,-0.1004,-0.1168,-0.1092,0,0,0,0,0]},{"header":{"parameterUnit":"m.s-1","parameterCategory":2,"la1":30.2991,"la2":30.254,"lo1":-89.0895,"lo2":-89.0444,"dy":0.0017,"dx":0.0017,"nx":28,"ny":28,"refTime":"2025-07-21T21:00:00:Z","depth":"2","parameterNumber":3,"parameterNumberName":"V-component_of_CURRENTS"},"data":[0,0,0,0,0,0,0,0,0,0,0,0,0,0,0,0,0,0,0,0,0,0,0,0,0,0,0,0,0,0,0,0,0,0,0,0,0,0,0,0,0,0,0,0,0,0,0,0,0,0,0,0,0,0,0,0,0,0,-0.0051,-0.005,0,0.0027,0.0028,0.0029,0.0083,0.0083,0.0083,0.0084,0.0283,0.0288,0.0293,0,0,0,0,0,0,0,0,0,0,0,0,0,-0.0161,-0.0159,-0.0051,-0.005,-0.0049,0.0027,0.0028,0.0029,0.0083,0.0083,0.0083,0.0084,0.0282,0.0288,0.0294,0,0,0,0,0,0,0,0,0,0,0,0,0,-0.0099,-0.0158,-0.0051,-0.0015,-0.0011,0.0026,0.0028,0.0029,0.0083,0.0083,0.0084,0.0084,0.028,0.0287,0.0295,0.0334,0,0,0.0318,0.0321,0,0,0,0,0,0,0,0,-0.0103,-0.0095,-0.0021,-0.0017,-0.0013,0.0044,0.0062,0.0137,0.0083,0.0049,0.0084,0.0084,0.0213,0.0226,0.0241,0.0344,0.0352,0.0319,0.0323,0.0327,0.0329,0,0,0,0,0,0,0,-0.0107,-0.0098,-0.0018,-0.002,-0.0015,-0.0005,0.0004,0.0076,0.0132,0.0052,0.0056,0.0061,0.0217,0.0233,0.0246,0.0355,0.0318,0.0325,0.033,0.0333,0.0627,0.063,0,0,0,0,0,0,-0.012,-0.0102,-0.0021,-0.0016,-0.006,-0.0004,0.0007,0.0027,0.0129,0.0143,0.0061,0.0064,0.022,0.0237,0.0254,0.0293,0.0327,0.0334,0.0338,0.0624,0.0628,0.0631,0,0,0,0,0,0,-0.0122,-0.0113,-0.0024,-0.006,-0.0048,-0.0002,0.002,0.0028,0.0044,0.0134,0.0151,0.0068,0.0221,0.0243,0.0326,0.0302,0.0337,0.0344,0.062,0.0625,0.063,0.038,0,0,0,0,0,0,-0.0126,-0.0114,-0.0116,-0.006,-0.0046,-0.0011,0.0019,0.0029,0.0046,0.005,0.0145,0.0164,0.0223,0.0314,0.0334,0.0313,0.035,0.0616,0.0622,0.0628,0.0384,0.0376,0.0369,0,0,0,0,0,-0.0129,-0.0134,-0.0116,-0.0108,-0.0047,-0.0012,-0.0004,0.003,0.0046,0.0047,0.0123,0.0161,0.0369,0.0321,0.0344,0.0324,0.0613,0.0621,0.0628,0.0388,0.0378,0.0369,0,0,0,0,0,0,-0.0179,-0.0127,-0.0107,-0.0094,-0.0061,-0.0004,0.0001,0.0024,0.0082,0.0093,0.0177,0.0202,0.0262,0.0364,0.031,0.0448,0.0508,0.052,0.0319,0.031,0.0303,0.0296,0.0356,0,0,0,0,0,-0.0193,-0.0189,-0.0129,-0.0126,-0.0101,-0.0051,-0.0037,-0.0012,0.0048,0.0072,0.014,0.0242,0.0313,0.0363,0.0447,0.0513,0.0564,0.0539,0.053,0.0522,0.0545,0.0613,0.0609,0.0655,0.0655,0.0655,0,0,-0.0212,-0.0188,-0.0183,-0.0139,-0.0102,-0.0079,-0.004,-0.0018,-0.0009,0.0089,0.0133,0.02,0.0327,0.0384,0.0427,0.0461,0.0522,0.0531,0.0521,0.0551,0.0619,0.0614,0.0608,0.066,0.0659,0.0659,0,0,-0.0253,-0.0218,-0.0223,-0.019,-0.0148,-0.0114,-0.011,-0.0047,-0.0026,0.0022,0.0091,0.015,0.028,0.0342,0.0396,0.0419,0.0465,0.0466,0.0416,0.0477,0.0471,0.0467,0.0423,0.0417,0.0473,0.0473,0.0472,0,-0.0279,-0.0264,-0.0223,-0.021,-0.0188,-0.013,-0.012,-0.0091,-0.0019,0.0004,0.0022,0.0189,0.0257,0.033,0.0328,0.0385,0.041,0.0403,0.0453,0.0451,0.0451,0.0409,0.0405,0.0461,0.0463,0.0464,0.0465,0,-0.0308,-0.0294,-0.0287,-0.0251,-0.0233,-0.021,-0.0158,-0.0135,-0.0104,-0.0069,-0.0001,0.0089,0.0195,0.0216,0.0265,0.0314,0.0319,0.0401,0.0436,0.0428,0.0387,0.0387,0.0446,0.045,0.0453,0.0456,0,0,-0.0349,-0.0315,-0.031,-0.0297,-0.0245,-0.0227,-0.0213,-0.0171,-0.0157,-0.0097,-0.0073,0.002,0.0066,0.014,0.0205,0.0258,0.0203,0.032,0.0328,0.0202,0.0262,0.0397,0.0411,0.0285,0.0287,0.0288,0.0191,0,-0.0372,-0.0368,-0.0349,-0.0338,-0.0312,-0.0266,-0.0264,-0.023,-0.0187,-0.0152,-0.0071,-0.0024,0.004,0.0061,0.0122,0.0195,0.0215,0.0218,0.036,0.0362,0.0424,0.0422,0.0379,0.0307,0.0192,0.0192,0.0192,0,-0.0392,-0.0381,-0.0383,-0.0364,-0.035,-0.0348,-0.0314,-0.0307,-0.0251,-0.0226,-0.0158,-0.0094,-0.0043,0.0027,0.0127,0.0125,0.0183,0.0238,0.0238,0.0473,0.0506,0.0331,0.0313,0.0194,0.0194,0.0194,0.0193,0,-0.0429,-0.0402,-0.041,-0.0394,-0.0369,-0.0371,-0.0361,-0.0321,-0.0336,-0.0273,-0.0287,-0.0173,-0.0168,-0.0035,0.0079,0.009,0.0196,0.0224,0.0389,0.0392,0.045,0.0461,0.0316,0.0317,0.0317,0.0317,0.0317,0,-0.0452,-0.0449,-0.0421,-0.0421,-0.0426,-0.0404,-0.0423,-0.0394,-0.0397,-0.0424,-0.0332,-0.0334,-0.0174,-0.0089,0.0043,0.0218,0.0164,0.0383,0.0412,0.036,0.0364,0.0386,0.0395,0.0313,0.0314,0.0315,0.0315,0,-0.0495,-0.0478,-0.0473,-0.0452,-0.0447,-0.0449,-0.0485,-0.0515,-0.0507,-0.0544,-0.0549,-0.0499,-0.0387,-0.0205,-0.0028,0.0141,0.0319,0.0403,0.0288,0.0312,0.0448,0.0446,0.0522,0.0527,0.0531,0.0534,0.0537,0,-0.0515,-0.0522,-0.0505,-0.051,-0.0501,-0.0511,-0.0553,-0.0563,-0.0603,-0.0636,-0.067,-0.0599,-0.0513,-0.0212,0.0115,0.0381,0.0373,0.0496,0.0568,0.0466,0.0485,0.0477,0.047,0.0456,0.0458,0.046,0.0461,0,-0.0548,-0.0549,-0.0555,-0.0571,-0.0597,-0.0644,-0.0686,-0.0727,-0.0763,-0.0775,-0.0783,-0.0722,-0.0441,-0.0123,0.0267,0.0414,0.0466,0.0544,0.0471,0.0475,0.0417,0.0432,0.0424,0.0475,0.0474,0.0473,0.0472,0.0472,-0.0573,-0.0587,-0.0613,-0.0628,-0.0685,-0.0767,-0.0772,-0.0819,-0.086,-0.083,-0.0822,-0.0597,-0.0419,0.0239,0.0392,0.0621,0.0648,0.0684,0.0672,0.066,0.0735,0.0697,0.081,0.081,0.0811,0.0811,0.0811,0,-0.0588,-0.0629,-0.0669,-0.0706,-0.0793,-0.0802,-0.0869,-0.085,-0.0837,-0.0756,-0.0685,-0.035,-0.0025,0.023,0.0644,0.0801,0.0708,0.0758,0.0602,0.0591,0.058,0.0644,0.0696,0.0696,0.0696,0.0696,0,0,-0.06,-0.065,-0.0683,-0.0798,-0.0835,-0.0892,-0.0901,-0.0844,-0.0743,-0.0614,-0.0358,-0.0178,0.0132,0.0366,0.0454,0.0628,0.0545,0.0599,0.0683,0.0468,0.0454,0.0542,0.0633,0,0,0,0,0]}],[{"header":{"parameterUnit":"m.s-1","parameterCategory":2,"la1":30.2991,"la2":30.254,"lo1":-89.0895,"lo2":-89.0444,"dy":0.0017,"dx":0.0017,"nx":28,"ny":28,"refTime":"2025-07-21T21:00:00:Z","depth":"4","parameterNumber":2,"parameterNumberName":"U-component_of_CURRENTS"},"data":[0,0,0,0,0,0,0,0,0,0,0,0,0,0,0,0,0,0,0,0,0,0,0,0,0,0,0,0,0,0,0,0,0,0,0,0,0,0,0,0,0,0,0,0,0,0,0,0,0,0,0,0,0,0,0,0,0,0,-0.1445,-0.1445,0,-0.1494,-0.1494,-0.1495,-0.1513,-0.1513,-0.1513,-0.1513,-0.1563,-0.1564,-0.1566,0,0,0,0,0,0,0,0,0,0,0,0,0,-0.1373,-0.1374,-0.1445,-0.1445,-0.1446,-0.1494,-0.1494,-0.1495,-0.1513,-0.1513,-0.1513,-0.1513,-0.1562,-0.1564,-0.1566,0,0,0,0,0,0,0,0,0,0,0,0,0,-0.141,-0.1375,-0.1444,-0.1462,-0.1464,-0.1494,-0.1494,-0.1495,-0.1513,-0.1513,-0.1513,-0.1513,-0.1562,-0.1564,-0.1566,-0.158,0,0,-0.1572,-0.1573,0,0,0,0,0,0,0,0,-0.1408,-0.1413,-0.1459,-0.1461,-0.1463,-0.1498,-0.1488,-0.1524,-0.1513,-0.1493,-0.1513,-0.1513,-0.1542,-0.1546,-0.1553,-0.1582,-0.1584,-0.1572,-0.1574,-0.1574,-0.1575,0,0,0,0,0,0,0,-0.1405,-0.1411,-0.1463,-0.1459,-0.1462,-0.147,-0.1475,-0.1494,-0.1516,-0.1495,-0.1497,-0.1504,-0.1543,-0.1551,-0.1555,-0.1585,-0.1572,-0.1574,-0.1575,-0.1576,-0.1663,-0.1664,0,0,0,0,0,0,-0.1402,-0.1408,-0.1461,-0.1464,-0.1436,-0.1471,-0.1476,-0.1486,-0.1516,-0.1521,-0.1504,-0.1505,-0.1548,-0.1552,-0.1557,-0.1625,-0.1574,-0.1576,-0.1578,-0.1662,-0.1663,-0.1664,0,0,0,0,0,0,-0.14,-0.1406,-0.1459,-0.1438,-0.1446,-0.1472,-0.1483,-0.1487,-0.1515,-0.1524,-0.1528,-0.153,-0.1548,-0.1554,-0.159,-0.1625,-0.1577,-0.1579,-0.166,-0.1662,-0.1664,-0.1729,0,0,0,0,0,0,-0.1398,-0.1405,-0.142,-0.1438,-0.1447,-0.1486,-0.1483,-0.1488,-0.1519,-0.1521,-0.1547,-0.1551,-0.1548,-0.1587,-0.1592,-0.1627,-0.1581,-0.1659,-0.1661,-0.1663,-0.1725,-0.1733,-0.1739,0,0,0,0,0,-0.1395,-0.1414,-0.142,-0.1427,-0.1463,-0.1487,-0.1492,-0.151,-0.1521,-0.1535,-0.1555,-0.1551,-0.1603,-0.159,-0.1596,-0.1632,-0.1658,-0.1661,-0.1663,-0.1722,-0.1731,-0.1739,0,0,0,0,0,0,-0.1394,-0.1419,-0.1426,-0.1453,-0.1472,-0.1491,-0.1513,-0.1525,-0.1553,-0.1564,-0.1568,-0.1573,-0.1616,-0.1614,-0.1599,-0.166,-0.1629,-0.1633,-0.1672,-0.1681,-0.1687,-0.1672,-0.1582,0,0,0,0,0,-0.14,-0.142,-0.1441,-0.1464,-0.1478,-0.1501,-0.1518,-0.1531,-0.1553,-0.1567,-0.1585,-0.1605,-0.1627,-0.1646,-0.1659,-0.1699,-0.1674,-0.1724,-0.173,-0.1736,-0.1726,-0.1718,-0.1722,-0.1672,-0.1672,-0.1672,0,0,-0.1408,-0.1423,-0.1437,-0.1466,-0.1486,-0.1513,-0.1511,-0.1546,-0.1573,-0.1569,-0.1618,-0.163,-0.1641,-0.1682,-0.1701,-0.1688,-0.1739,-0.1739,-0.1744,-0.1731,-0.1721,-0.1725,-0.1729,-0.1674,-0.1673,-0.1673,0,0,-0.1425,-0.1449,-0.1469,-0.1489,-0.1522,-0.1538,-0.1553,-0.1585,-0.1606,-0.1651,-0.1653,-0.1682,-0.1724,-0.1732,-0.1744,-0.1795,-0.1771,-0.1809,-0.1839,-0.1831,-0.1835,-0.1838,-0.182,-0.1821,-0.1817,-0.1817,-0.1817,0,-0.1434,-0.1459,-0.1479,-0.1502,-0.1524,-0.1553,-0.158,-0.161,-0.165,-0.1667,-0.1675,-0.1731,-0.1745,-0.1784,-0.1803,-0.1811,-0.1797,-0.1811,-0.184,-0.1842,-0.1844,-0.1825,-0.1825,-0.1821,-0.182,-0.182,-0.1819,0,-0.1457,-0.1486,-0.1504,-0.1541,-0.1568,-0.1599,-0.1637,-0.1673,-0.1708,-0.1727,-0.1777,-0.1796,-0.1818,-0.1842,-0.1844,-0.1873,-0.1855,-0.1846,-0.1818,-0.1853,-0.1831,-0.1829,-0.1825,-0.1824,-0.1823,-0.1822,0,0,-0.1446,-0.1507,-0.1515,-0.1537,-0.1591,-0.1614,-0.1671,-0.1715,-0.1745,-0.1795,-0.1823,-0.1877,-0.1877,-0.1887,-0.1896,-0.1905,-0.1916,-0.1888,-0.1886,-0.1868,-0.1895,-0.1765,-0.1751,-0.1916,-0.1916,-0.1916,-0.1877,0,-0.1456,-0.1502,-0.1533,-0.1586,-0.1613,-0.1658,-0.17,-0.1747,-0.1787,-0.1821,-0.1855,-0.188,-0.1898,-0.1907,-0.1924,-0.1914,-0.1915,-0.1927,-0.1865,-0.1862,-0.1741,-0.1746,-0.1916,-0.1875,-0.1875,-0.1875,-0.1875,0,-0.1456,-0.149,-0.1541,-0.16,-0.1617,-0.1655,-0.1719,-0.1758,-0.1812,-0.1838,-0.1875,-0.1886,-0.1917,-0.1915,-0.1924,-0.1933,-0.1914,-0.1908,-0.1906,-0.1755,-0.1729,-0.1831,-0.1872,-0.1872,-0.1872,-0.1872,-0.1873,0,-0.1421,-0.1491,-0.1533,-0.1555,-0.1629,-0.1664,-0.1704,-0.1763,-0.1779,-0.1836,-0.1832,-0.1888,-0.1884,-0.1898,-0.1897,-0.1906,-0.189,-0.1893,-0.1758,-0.1749,-0.185,-0.1847,-0.1876,-0.1876,-0.1876,-0.1876,-0.1876,0,-0.1399,-0.1435,-0.1524,-0.1544,-0.159,-0.1647,-0.1687,-0.1733,-0.1766,-0.175,-0.1823,-0.1793,-0.1876,-0.1876,-0.1889,-0.1814,-0.1879,-0.1747,-0.1723,-0.188,-0.1881,-0.185,-0.1847,-0.1874,-0.1875,-0.1875,-0.1875,0,-0.1343,-0.1405,-0.1457,-0.1545,-0.1573,-0.1604,-0.1659,-0.1668,-0.171,-0.1684,-0.1687,-0.172,-0.1709,-0.1781,-0.1791,-0.1758,-0.1732,-0.1687,-0.1848,-0.1837,-0.1599,-0.16,-0.1517,-0.1512,-0.1508,-0.1504,-0.1501,0,-0.1313,-0.1337,-0.1443,-0.147,-0.1512,-0.1563,-0.1579,-0.1636,-0.1616,-0.1601,-0.1556,-0.1562,-0.1578,-0.1491,-0.1596,-0.1616,-0.1604,-0.1582,-0.159,-0.1572,-0.1559,-0.1568,-0.1575,-0.1494,-0.1493,-0.1492,-0.1491,0,-0.1251,-0.1305,-0.1347,-0.1398,-0.1434,-0.1453,-0.1469,-0.1432,-0.1448,-0.1502,-0.1361,-0.1338,-0.1322,-0.1365,-0.1401,-0.1416,-0.1599,-0.1537,-0.1546,-0.1554,-0.1544,-0.1537,-0.1549,-0.1476,-0.1478,-0.148,-0.148,0,-0.1205,-0.1218,-0.1275,-0.1303,-0.1343,-0.1302,-0.1336,-0.1273,-0.1252,-0.1226,-0.1175,-0.1196,-0.1257,-0.1255,-0.1284,-0.1303,-0.1286,-0.1251,-0.1275,-0.1293,-0.1248,-0.1205,-0.0994,0,0,0,0,0,-0.1148,-0.1144,-0.1168,-0.1178,-0.1204,-0.1219,-0.1232,-0.1253,-0.126,-0.1112,-0.1128,-0.1095,-0.1078,-0.1113,-0.1093,-0.1237,-0.1336,-0.1211,-0.132,-0.1394,-0.1411,-0.1386,0,0,0,0,0,0,-0.1108,-0.1132,-0.113,-0.1052,-0.1033,-0.1029,-0.1035,-0.1047,-0.0966,-0.0989,-0.0994,-0.1022,-0.1057,-0.1075,-0.1067,-0.1086,-0.1129,-0.1253,-0.125,-0.1384,-0.14,-0.1413,-0.1394,0,0,0,0,0]},{"header":{"parameterUnit":"m.s-1","parameterCategory":2,"la1":30.2991,"la2":30.254,"lo1":-89.0895,"lo2":-89.0444,"dy":0.0017,"dx":0.0017,"nx":28,"ny":28,"refTime":"2025-07-21T21:00:00:Z","depth":"4","parameterNumber":3,"parameterNumberName":"V-component_of_CURRENTS"},"data":[0,0,0,0,0,0,0,0,0,0,0,0,0,0,0,0,0,0,0,0,0,0,0,0,0,0,0,0,0,0,0,0,0,0,0,0,0,0,0,0,0,0,0,0,0,0,0,0,0,0,0,0,0,0,0,0,0,0,-0.0033,-0.0033,0,0.0007,0.0008,0.0008,0.0045,0.0046,0.0046,0.0047,0.011,0.0111,0.0112,0,0,0,0,0,0,0,0,0,0,0,0,0,-0.0102,-0.0101,-0.0033,-0.0033,-0.0032,0.0007,0.0008,0.0008,0.0045,0.0046,0.0046,0.0047,0.0109,0.0111,0.0112,0,0,0,0,0,0,0,0,0,0,0,0,0,-0.0068,-0.01,-0.0033,-0.0009,-0.0006,0.0007,0.0008,0.0008,0.0045,0.0046,0.0046,0.0047,0.0109,0.0111,0.0112,0.0109,0,0,0.0118,0.0119,0,0,0,0,0,0,0,0,-0.007,-0.0066,-0.0013,-0.001,-0.0007,0.0022,0.0007,0.0043,0.0045,0.0025,0.0047,0.0047,0.0082,0.0086,0.0091,0.0112,0.0115,0.0118,0.0119,0.012,0.0121,0,0,0,0,0,0,0,-0.0073,-0.0067,-0.0018,-0.0012,-0.0009,-0.0008,-0.0002,0.0013,0.0049,0.0027,0.003,0.0035,0.0084,0.009,0.0093,0.0116,0.0118,0.012,0.0121,0.0122,0.0149,0.0149,0,0,0,0,0,0,-0.0076,-0.0069,-0.0019,-0.0016,-0.0037,-0.0007,-0.0001,0.0012,0.0049,0.0055,0.0034,0.0036,0.0086,0.0091,0.0096,0.0115,0.012,0.0122,0.0123,0.0149,0.0149,0.0148,0,0,0,0,0,0,-0.0078,-0.0072,-0.0021,-0.0042,-0.0036,-0.0006,0.0007,0.0012,0.002,0.0054,0.0061,0.0037,0.0087,0.0093,0.0107,0.0117,0.0123,0.0124,0.015,0.0149,0.0149,0.0141,0,0,0,0,0,0,-0.008,-0.0072,-0.0074,-0.0042,-0.0034,-0.0016,0.0006,0.0012,0.0022,0.0025,0.0058,0.0065,0.0088,0.0104,0.0109,0.012,0.0126,0.015,0.015,0.0149,0.0142,0.014,0.0139,0,0,0,0,0,-0.0082,-0.0086,-0.0074,-0.0069,-0.0034,-0.0017,-0.0013,0.001,0.0021,0.002,0.0043,0.0064,0.0103,0.0105,0.0111,0.0123,0.0151,0.015,0.0149,0.0142,0.014,0.0139,0,0,0,0,0,0,-0.0115,-0.0082,-0.0068,-0.006,-0.0042,-0.001,-0.0009,0.0005,0.0021,0.0025,0.0058,0.0065,0.0081,0.0096,0.0097,0.0126,0.0131,0.0131,0.0124,0.0122,0.0121,0.0122,0.0127,0,0,0,0,0,-0.0124,-0.0121,-0.0084,-0.0083,-0.0069,-0.0041,-0.0034,-0.0018,0.0004,0.0012,0.0035,0.0058,0.0081,0.0096,0.0111,0.0127,0.0164,0.0137,0.0135,0.0134,0.0137,0.0228,0.0236,0.0146,0.0146,0.0146,0,0,-0.0138,-0.012,-0.0119,-0.0091,-0.0071,-0.0059,-0.0034,-0.0023,-0.0016,0.0016,0.0028,0.005,0.0081,0.0099,0.0109,0.0116,0.017,0.0133,0.0132,0.0136,0.0228,0.0237,0.0246,0.0145,0.0145,0.0145,0,0,-0.0165,-0.0144,-0.0146,-0.0126,-0.01,-0.0082,-0.008,-0.0049,-0.0035,-0.0024,0.0006,0.0037,0.0056,0.0094,0.0114,0.0112,0.0156,0.0109,0.0113,0.0201,0.021,0.0219,0.0245,0.0256,0.0115,0.0115,0.0115,0,-0.0183,-0.0171,-0.0147,-0.0137,-0.0123,-0.0093,-0.0086,-0.007,-0.0044,-0.003,-0.0025,0.0036,0.006,0.0111,0.0108,0.0113,0.0148,0.0121,0.0203,0.0212,0.0222,0.0246,0.0259,0.0115,0.0115,0.0115,0.0115,0,-0.0201,-0.0189,-0.0186,-0.0162,-0.0152,-0.0139,-0.0108,-0.0101,-0.0084,-0.006,-0.0017,0.0026,0.0068,0.0081,0.0093,0.0164,0.016,0.0189,0.0214,0.0231,0.0254,0.0268,0.0114,0.0114,0.0115,0.0115,0,0,-0.0233,-0.0205,-0.0202,-0.0191,-0.0157,-0.015,-0.014,-0.0113,-0.0101,-0.0063,-0.003,0.0023,0.0057,0.008,0.0117,0.0191,0.027,0.0211,0.0216,0.0246,0.0427,0.0344,0.035,0.0326,0.0329,0.0331,0.0406,0,-0.0246,-0.024,-0.0223,-0.0216,-0.02,-0.0172,-0.0169,-0.0146,-0.0117,-0.0085,-0.0011,0.0026,0.0055,0.0079,0.0161,0.0247,0.0309,0.0244,0.0397,0.04,0.0336,0.0366,0.0341,0.0416,0.0419,0.0422,0.0423,0,-0.026,-0.025,-0.0249,-0.023,-0.0222,-0.0223,-0.0202,-0.0195,-0.0141,-0.0117,-0.0048,0.0002,0.0103,0.0127,0.0305,0.0264,0.0336,0.0404,0.041,0.0349,0.0344,0.0403,0.0448,0.0446,0.0444,0.0442,0.0441,0,-0.029,-0.0266,-0.0271,-0.0259,-0.0239,-0.024,-0.0235,-0.0202,-0.0198,-0.0129,-0.0116,0.0017,0.0067,0.0216,0.0321,0.0334,0.0501,0.0545,0.0534,0.0527,0.0584,0.0574,0.0672,0.0672,0.0671,0.0671,0.0671,0,-0.0301,-0.0301,-0.0284,-0.0284,-0.0291,-0.0268,-0.0277,-0.0257,-0.0225,-0.0221,-0.0131,-0.0101,0.0097,0.0198,0.0324,0.0445,0.0508,0.0535,0.0555,0.0569,0.0558,0.0591,0.058,0.0674,0.0673,0.0673,0.0672,0,-0.0332,-0.032,-0.0321,-0.0307,-0.0308,-0.0314,-0.0319,-0.0325,-0.0295,-0.0282,-0.0264,-0.017,-0.0037,0.0121,0.0336,0.0416,0.056,0.0576,0.0522,0.0538,0.0529,0.0518,0.0619,0.0617,0.0615,0.0614,0.0612,0,-0.0344,-0.035,-0.0352,-0.0362,-0.0357,-0.0365,-0.0382,-0.0361,-0.0365,-0.0333,-0.0328,-0.0228,-0.0151,0.0075,0.0251,0.0473,0.0494,0.0553,0.0603,0.0522,0.0532,0.0522,0.0513,0.061,0.0609,0.0609,0.0608,0,-0.0366,-0.0377,-0.0385,-0.0409,-0.0425,-0.0442,-0.0454,-0.0464,-0.0447,-0.0421,-0.0381,-0.0273,-0.0153,0.0045,0.0178,0.0347,0.0528,0.0538,0.0544,0.0592,0.0512,0.0522,0.0515,0.0603,0.0604,0.0604,0.0604,0,-0.0388,-0.0406,-0.0433,-0.0452,-0.0482,-0.0511,-0.0507,-0.0505,-0.0504,-0.0454,-0.0447,-0.0312,-0.0219,-0.0026,0.0113,0.0253,0.0321,0.0386,0.0402,0.041,0.0324,0.0191,0.0206,0,0,0,0,0,-0.0399,-0.044,-0.0473,-0.0503,-0.0538,-0.0555,-0.0559,-0.0549,-0.0528,-0.0508,-0.0474,-0.0364,-0.0169,-0.0085,0.0047,0.0101,0.0346,0.0259,0.0428,0.0571,0.0577,0.0505,0,0,0,0,0,0,-0.0413,-0.0457,-0.0484,-0.0548,-0.0583,-0.0621,-0.0626,-0.0605,-0.0577,-0.0537,-0.043,-0.0359,-0.016,-0.0257,0.0034,0.0077,0.0198,0.0361,0.0363,0.0567,0.0573,0.0578,0.0506,0,0,0,0,0]}]]